Regional Weather Roundup
Issued by NWS Spokane, WA

Home | Current Version | Previous Version | Text Only | Print | Product List | Glossary On
Versions: 1 2 3 4 5 6 7 8 9 10 11 12 13 14 15 16 17 18 19 20 21 22 23 24 25 26 27 28 29 30 31 32 33 34 35 36 37 38 39 40 41 42 43 44 45 46 47 48 49 50
000
NZUS01 KOTX 220610
RWROTX
EASTERN WASHINGTON/NORTHERN IDAHO ROUNDUP
NATIONAL WEATHER SERVICE, SPOKANE WA
1100 PM PDT SUN SEP 21 2014

Note: "fair" indicated few or no clouds below 12,000 feet with no
significant weather and/or obstructions to visibility.

...NORTHEAST WASHINGTON AND NORTHERN IDAHO PANHANDLE...

CITY           SKY/WX    TMP DP  RH WIND       PRES   REMARKS
SPOKANE INTL   PTCLDY    64  41  42 SW5       29.90S
SPOKANE DOWNTO PTCLDY    62  42  47 CALM      29.89S
COEUR D ALENE  PTCLDY    57  46  67 E5        29.90S
DEER PARK      CLEAR     55  40  56 CALM      29.90S
SANDPOINT      CLEAR     50  50 100 CALM      29.91S

...SOUTHEAST WASHINGTON AND SOUTHERN IDAHO PANHANDLE...

CITY           SKY/WX    TMP DP  RH WIND       PRES   REMARKS
WALLA WALLA    MOCLDY    70  47  43 E6        29.84S
PULLMAN/MOSCOW MOCLDY    58  34  40 CALM      29.93S
LEWISTON       MOCLDY    73  40  30 S5        29.86R
LOWELL           N/A     60  55  83 NW5       29.91R

...COLUMBIA BASIN...

CITY           SKY/WX    TMP DP  RH WIND       PRES   REMARKS
EPHRATA        PTCLDY    72  40  31 NW3       29.83S
MOSES LAKE     PTCLDY    67  45  45 CALM      29.84S
TRI CITIES     PTCLDY    61  57  87 N5        29.81R
HERMISTON      PTCLDY    64  48  56 CALM      29.82S
PENDLETON      PTCLDY    63  44  50 N3        29.86R

...EAST SLOPES CASCADES...

CITY           SKY/WX    TMP DP  RH WIND       PRES   REMARKS
THE DALLES     PTCLDY    78  53  41 NW8       29.84R
YAKIMA         PTCLDY    60  50  69 W6        29.86S
ELLENSBURG     PTCLDY    66  46  48 CALM      29.88F
WENATCHEE      PTCLDY    76  43  30 NW12      29.85S
OMAK           PTCLDY    64  43  46 NW6       29.86R

...SOUTHERN BRITISH COLUMBIA...

CITY           SKY/WX    TMP DP  RH WIND       PRES   REMARKS
PENTICTON      CLEAR     55  46  71 CALM      29.86R
CRANBROOK      CLEAR     59  45  58 SW7       29.97S

...WESTERN MONTANA...

CITY           SKY/WX    TMP DP  RH WIND       PRES   REMARKS
MISSOULA       CLEAR     61  45  55 E3        29.97R

...NEIGHBORING CITIES...

CITY           SKY/WX    TMP DP  RH WIND       PRES   REMARKS
SEATTLE        PTCLDY    62  56  80 S9        29.96R
CALGARY        CLEAR     57  45  62 S3        29.88F



USA.gov is the U.S. government's official web portal to all federal, state and local government web resources and services.